FENGYUN 1C DEB, 31544

Orbit data source: Space-Track

FENGYUN 1C DEB, 31544 is space debris in SSO originally from a launch on Mon, 10 May 1999 UTC launched from the Taiyaun Space Center, China (TSC). Fengyun 1C debris stems from the Chinese weather satellite Fengyun-1C, which was intentionally destroyed by a Chinese anti-satellite missile in 2007. This event dramatically increased the amount of space debris, with thousands of trackable fragments posing hazards to satellites and human spaceflight. The Fengyun 1C debris cloud has become a focal point in discussions about space sustainability and the need for international regulations to prevent the creation of new debris.

Loading next visibility...
Identifier
31544, 1999-025BYK
Orbit
SSO
Country
Flag of CNCN / PRC
Related business
Manufacturer
Unknown
Mission
Spacecraft
Bus & Motor
Unknown
Mass
Unknown
Launch date (UTC)
1999-05-10 (27 years ago)
Launch vehicle
Unknown
Launch site
Taiyaun Space Center, China (TSC)
Object type
Payload
Rocket body
Debris
Shape & HBR
Unknown shape, 0.1 m
Radar Cross Section
Small (<0.1 m²)

Expand to show TLE details & history
Last TLE update: 16 hours ago

TLE from 16 hours ago
0 FENGYUN 1C DEB
1 31544U 99025BYK 25351.62042000  .00001128  00000-0  60983-3 0  9993
2 31544  98.8287  42.8275 0031976 254.7367 105.0270 14.14347496958267
Epoch: 2025-12-17T14:53Z
TLE epoch observation values (Epoch: 2025-12-17T14:53:24.288Z)
Latitude
-0.00002°
Longitude
92.98864°
Altitude
853.494 km
Speed
7.423 km/s
True Right ascension
02h 51m 18s
True Declination
0° 00' 00"
Sunlit
Object was in full shadow at epoch
Visualization orbit readout
Latitude
Unknown
Longitude
Unknown
Altitude
Unknown
Speed
Unknown
Apparent Right ascension
Unknown
Apparent Declination
Unknown
Sunlit
N/A
Visualization observer readout
Local Sidereal Time
05:26:44
Azimuth
Unknown
Elevation
Unknown
Doppler factor
Unknown
Orbital elements
Apogee altitude
864.791 km
Perigee altitude
818.618 km
Semi-major axis
7,219.842 km
Eccentricity
0.0032
Inclination
98.8287°
RAAN
42.8275°
Arg. of periapsis
254.7367°
True anomaly
105.38052°
Mean anomaly
105.027°
Eccentric anomaly
105.2038°
Mean motion
3.53795 °/min
Orbital period
101.75 mins
BSTAR
0.00060983
Loading maneuver chart data...
Computing Atmospheric mass density...

Documentation

Showing up to 5 results
|